Current weather by "City, St" or "zip code"  
 

Current Conditions: HOUSTON

Cloudy


82.0 F

Last Updated on May 26 2024, 01:53 AM CDT
Humidity: 85%
Wind Speed: S 12.8 mph
Barometer 29.76 in
Dewpoint: 77.0 F
Visibility: 7.00 mi
Precip: --
Heat Index: 90.1 F
Wind Chill: NA
Current conditions at:

HOUSTON (KLVJ)

Lat: 29.52 Lon: 95.24

active severe weather and emergency alerts image image weather storm and storm spotter reports image weather observation monitoring service image
Active
Alerts
Storm Reports Obs
Monitoring

Sign-up For Email & Text Message Weather Alert Notification Services



Advertise Here

Observation History for HOUSTON


Time Wind
(mph)
Vis
(mi)
Weather Precip (in) Temperature (F) Relative
Humidity
Wind
Chill
(F)
Heat
Index
(F)
Pressure
Air Dwpt altimeter
(in)
sea level
(mb)
Rmks
01:53 AM CDT S 12.8 7.00 Cloudy -- 82.0 77.0 85% NA 90.1 29.76 1007.8
12:53 AM CDT S 10.3 7.00 Cloudy -- 82.0 77.0 85% NA 90.1 29.78 1008.5
11:53 PM CDT S 8.1 7.00 Cloudy -- 82.0 77.0 85% NA 90.1 29.81 1009.2
11:05 PM CDT 9.2 8.00 Mostly Cloudy -- 82.0 75.9 82% NA 89.4 29.82 1009.8
10:53 PM CDT 8.1 8.00 Mostly Clear -- 82.0 75.9 82% NA 89.4 29.82 1009.8
09:53 PM CDT 8.1 8.00 Partly Cloudy -- 82.0 77.0 85% NA 90.1 29.81 1009.2
08:53 PM CDT SE 11.4 9.00 Partly Cloudy -- 82.9 77.0 82% NA 91.9 29.81 1009.2
07:53 PM CDT 10.3 8.00 Clear -- 84.0 75.9 77% NA 92.8 29.78 1008.5
06:53 PM CDT 11.4 9.00 Clear -- 86.0 73.9 67% NA 93.9 29.77 1008.1
05:53 PM CDT 13.9 9.00 Clear -- 88.0 73.9 63% NA 96.6 29.78 1008.5
04:53 PM CDT SE 16.1 9.00 Partly Cloudy -- 89.1 75.0 63% NA 99.3 29.78 1008.5
03:53 PM CDT 15.0 9.00 Clear -- 90.0 75.0 62% NA 100.6 29.81 1009.2
02:53 PM CDT 9.2 9.00 Clear -- 91.0 75.9 61% NA 103.1 29.82 1009.8
01:53 PM CDT 8.1 8.00 Clear -- 91.0 75.9 61% NA 103.1 29.83 1010.2
12:53 PM CDT 10.3 8.00 Mostly Clear -- 90.0 75.9 64% NA 101.7 29.85 1010.8
11:53 AM CDT 11.4 6.00 Haze -- 89.1 77.0 68% NA 101.8 29.86 1011.2
10:53 AM CDT S 9.2 5.00 Haze -- 86.0 77.0 75% NA 97.2 29.86 1011.2
09:53 AM CDT S 9.2 5.00 Haze -- 84.9 77.0 77% NA 95.4 29.86 1011.2
08:32 AM CDT S 8.1 6.00 Haze -- 82.9 78.1 85% NA 92.8 29.85 1010.8
07:53 AM CDT 6.9 5.00 Fog/Mist -- 81.0 78.1 91% NA 88.5 29.84 1010.5
06:53 AM CDT SE 3.4 4.00 Fog/Mist -- 80.1 78.1 94% NA 86.4 29.82 1009.8
05:53 AM CDT S 5.8 5.00 Fog/Mist -- 79.0 78.1 97% NA 83.5 29.81 1009.2
04:53 AM CDT 5.8 5.00 Fog/Mist -- 79.0 78.1 97% NA 83.5 29.78 1008.5
03:53 AM CDT 5.00 Fog/Mist -- 79.0 78.1 97% NA 83.5 29.78 1008.5

Regional Weather Observation


HOUSTON/HOBBY (KHOU)

Cloudy
82.9 F

HOUSTON/SUGAR LA (KSGR)

Cloudy
82.0 F

HOUSTON/ELLINGTO (KEFD)

Partly Cloudy
82.4 F

LA PORTE (KT41)

Cloudy
NULL F

HOUSTON/SOUTHWST (KAXH)

Cloudy
81.1 F

HOUSTON (KLVJ)

Cloudy
82.0 F

Advertise Here


Advertise Here